Location: Manchester NH
(43.0000°N, 71.5000°W)
Time: 13:53:03
(UTC-05:00)

ISS - Visible Passes

Search period start: 16 January 2022 00:00
Search period end: 26 January 2022 00:00
Orbit: 414 x 422 km, 51.6° (Epoch: 16 January)

Date Brightness Start Highest point End Pass type
(mag) Time Alt. Az. Time Alt. Az. Time Alt. Az.
16 Jan -1.9 18:25:52 10° SSW 18:27:35 21° SSE 18:27:35 21° SSE visible
17 Jan -1.7 17:38:57 10° SSE 17:40:53 15° SE 17:42:00 13° ESE visible
17 Jan -1.0 19:13:57 10° WSW 19:14:58 18° WSW 19:14:58 18° WSW visible
18 Jan -3.8 18:26:04 10° SW 18:29:19 68° SSE 18:29:19 68° SSE visible
19 Jan -3.1 17:38:23 10° SSW 17:41:31 39° SE 17:43:36 18° ENE visible
19 Jan -1.1 19:15:15 10° W 19:16:33 20° WNW 19:16:33 20° WNW visible
20 Jan -3.2 18:27:06 10° WSW 18:30:20 48° NNW 18:30:46 45° N visible
21 Jan -3.7 17:39:04 10° WSW 17:42:24 76° NNW 17:44:56 16° NE visible
21 Jan -0.9 19:16:53 10° WNW 19:17:53 15° NW 19:17:53 15° NW visible
22 Jan -2.3 18:28:37 10° WNW 18:31:31 27° NNW 18:32:00 25° N visible
23 Jan -2.6 17:40:23 10° W 17:43:29 35° NNW 17:46:06 13° NE visible
23 Jan -0.7 19:18:32 10° NW 19:19:02 12° NW 19:19:02 12° NW visible
24 Jan -1.8 18:30:19 10° WNW 18:32:51 20° N 18:33:07 19° N visible
25 Jan -2.0 17:42:03 10° WNW 17:44:45 22° NNW 17:47:11 11° NE visible
25 Jan -0.7 19:19:51 10° NW 19:20:07 11° NW 19:20:07 11° NW visible
